Weather in Tibau do Sul

Brazil     6°11′18″S   35°05′37″W
temp.,
°C
wind,
m/s
gust,
m/s
humid.,
%
clouds,
%
prec.,
mm/h
press.,
hPa
HPBL,
m
14 april, wed
wed1400:00+27ese568214 0.7 1013564
03:00+26se458416 1.9 1011483
06:00+26sse348421 1.6 1012435
09:00+28sse45779 3.3 1014717
12:00+28ese55726 0.1 1012847
15:00+28ese45726 0.1 1010776
18:00+27ese567895 0.0 1012624
21:00+27ese57768 0.0 1013695
15 april, thu
thu1500:00+27se5780100 0.9 1012674
03:00+26sse4683100 2.9 1011544
06:00+25sse468790 3.3 1012377
09:00+26sse4682100 6.0 1014528
12:00+27sse6777100 1.7 1012750
15:00+27sse677699 1.9 1010780
18:00+26se688282 1.3 1011722
21:00+26se688497 2.1 1013619
16 april, fri
fri1600:00+26sse468499 2.6 1012562
03:00+25sse468593 5.0 1011524
06:00+25sse468564 1.5 1012568
09:00+28se567589 3.1 1013924
12:00+29ese5669100 1.6 10111073
15:00+28ese5672100 1.9 1010931
18:00+26ese468497 4.0 1011386
21:00+26se468330 6.3 1012564
17 april, sat
sat1700:00+26se458355 1.1 1011529
03:00+26sse468323 2.7 1010539
06:00+26sse458494 1.4 1012502
09:00+28se4675100 2.8 1013822
12:00+28se5676100 2.0 1011729
15:00+28ese567397 2.9 1010926
18:00+27ese5779100 1.0 1011573
21:00+26ese577913 2.2 1012537
18 april, sun
sun1800:00+26se568035 0.8 1011606
03:00+26se5683100 1.4 1010567
06:00+26se5782100 0.3 1011652
09:00+28se677598 0.9 1013955
12:00+28ese667174 0.3 10121023
15:00+28ese567511 1.3 1010898
18:00+26se568118 0.5 1012599
21:00+26ese568317 1.3 1013568